[TLELIST] Archives

 

[TLELIST] Current TLEs

November 7th 2024 PDT

HST 1 20580U 90037B 24311.75141434 .00015888 00000-0 68932-3 0 9995 2 20580 28.4669 108.0020 0002626 137.8702 222.2094 15.20881466698732 ISS (ZARYA) 1 25544U 98067A 24312.36869174 .00024640 00000-0 41797-3 0 9993 2 25544 51.6407 326.0830 0008957 143.7039 346.2840 15.51312396480750 CXO 1 25867U 99040B 24313.30258683 .00000952 00000-0 00000-0 0 9994 2 25867 44.3702 142.4641 8733067 303.6795 0.1280 0.37805640 15100 ...Continue Reading

[TLELIST] Current TLEs

November 6th 2024 PDT

HST 1 20580U 90037B 24310.57024183 .00014545 00000-0 63113-3 0 9990 2 20580 28.4661 115.9533 0002687 126.5479 233.5362 15.20843224698556 ISS (ZARYA) 1 25544U 98067A 24311.25031861 .00031109 00000-0 52624-3 0 9993 2 25544 51.6389 331.6368 0008863 141.1428 219.0200 15.51258662480580 CXO 1 25867U 99040B 24313.30258683 .00000952 00000-0 00000-0 0 9994 2 25867 44.3702 142.4641 8733067 303.6795 0.1280 0.37805640 15100 ...Continue Reading

[TLELIST] Current TLEs

November 5th 2024 PDT

HST 1 20580U 90037B 24309.78277759 .00015258 00000-0 66294-3 0 9995 2 20580 28.4657 121.2548 0002732 119.5915 240.4950 15.20818237698438 ISS (ZARYA) 1 25544U 98067A 24309.83301094 .00030182 00000-0 51246-3 0 9991 2 25544 51.6388 338.6707 0008917 136.9418 223.2270 15.51169947480361 CXO 1 25867U 99040B 24310.65906912 .00000923 00000-0 00000-0 0 9992 2 25867 44.3059 142.6326 8736331 303.5992 0.1784 0.37808045 15091 ...Continue Reading

[TLELIST] Current TLEs

November 4th 2024 PDT

HST 1 20580U 90037B 24309.19217057 .00017875 00000-0 77824-3 0 9993 2 20580 28.4655 125.2307 0002755 113.5774 246.5109 15.20802683698605 ISS (ZARYA) 1 25544U 98067A 24309.38430844 .00036228 00000-0 61358-3 0 9999 2 25544 51.6406 340.8943 0008960 135.8330 237.0511 15.51146575480293 CXO 1 25867U 99040B 24310.65906912 .00000923 00000-0 00000-0 0 9992 2 25867 44.3059 142.6326 8736331 303.5992 0.1784 0.37808045 15091 ...Continue Reading

[TLELIST] Current TLEs

November 4th 2024 PDT

HST 1 20580U 90037B 24309.19217057 .00017875 00000-0 77824-3 0 9993 2 20580 28.4655 125.2307 0002755 113.5774 246.5109 15.20802683698605 ISS (ZARYA) 1 25544U 98067A 24309.38430844 .00036228 00000-0 61358-3 0 9999 2 25544 51.6406 340.8943 0008960 135.8330 237.0511 15.51146575480293 CXO 1 25867U 99040B 24310.65906912 .00000923 00000-0 00000-0 0 9992 2 25867 44.3059 142.6326 8736331 303.5992 0.1784 0.37808045 15091 ...Continue Reading

[TLELIST] Current TLEs

November 4th 2024 PDT

HST 1 20580U 90037B 24309.19217057 .00017875 00000-0 77824-3 0 9993 2 20580 28.4655 125.2307 0002755 113.5774 246.5109 15.20802683698605 ISS (ZARYA) 1 25544U 98067A 24309.38430844 .00036228 00000-0 61358-3 0 9999 2 25544 51.6406 340.8943 0008960 135.8330 237.0511 15.51146575480293 CXO 1 25867U 99040B 24310.65906912 .00000923 00000-0 00000-0 0 9992 2 25867 44.3059 142.6326 8736331 303.5992 0.1784 0.37808045 15091 ...Continue Reading

[TLELIST] Current TLEs

November 3rd 2024 PDT

HST 1 20580U 90037B 24307.81405928 .00016666 00000-0 72615-3 0 9996 2 20580 28.4656 134.5111 0002834 100.3497 259.7415 15.20755424698130 ISS (ZARYA) 1 25544U 98067A 24308.37136889 .00029456 00000-0 50229-3 0 9999 2 25544 51.6408 345.9219 0008834 130.6033 342.2800 15.51062647480130 CXO 1 25867U 99040B 24310.65906912 .00000923 00000-0 00000+0 0 9991 2 25867 44.3059 142.6326 8736331 303.5992 0.1784 0.37808045 26251 ...Continue Reading

[TLELIST] Current TLEs

November 3rd 2024 PDT

HST 1 20580U 90037B 24307.81405928 .00016666 00000-0 72615-3 0 9996 2 20580 28.4656 134.5111 0002834 100.3497 259.7415 15.20755424698130 ISS (ZARYA) 1 25544U 98067A 24308.37136889 .00029456 00000-0 50229-3 0 9999 2 25544 51.6408 345.9219 0008834 130.6033 342.2800 15.51062647480130 CXO 1 25867U 99040B 24310.65906912 .00000923 00000-0 00000+0 0 9991 2 25867 44.3059 142.6326 8736331 303.5992 0.1784 0.37808045 26251 ...Continue Reading

[TLELIST] Current TLEs

November 2nd 2024 PDT

HST 1 20580U 90037B 24306.82966797 .00017229 00000-0 75161-3 0 9997 2 20580 28.4662 141.1368 0002843 90.2894 269.8025 15.20723624697981 ISS (ZARYA) 1 25544U 98067A 24307.46550300 .00101508 00000-0 16982-2 0 9992 2 25544 51.6416 350.4128 0008787 129.8604 321.5738 15.51032387479990 CXO 1 25867U 99040B 24308.01625054 .00000866 00000-0 00000+0 0 9999 2 25867 44.2586 142.7834 8739501 303.5226 0.3303 0.37811088 26241 ...Continue Reading

[TLELIST] Current TLEs

November 2nd 2024 PDT

HST 1 20580U 90037B 24306.82966797 .00017229 00000-0 75161-3 0 9997 2 20580 28.4662 141.1368 0002843 90.2894 269.8025 15.20723624697981 ISS (ZARYA) 1 25544U 98067A 24307.46550300 .00101508 00000-0 16982-2 0 9992 2 25544 51.6416 350.4128 0008787 129.8604 321.5738 15.51032387479990 CXO 1 25867U 99040B 24308.01625054 .00000866 00000-0 00000+0 0 9999 2 25867 44.2586 142.7834 8739501 303.5226 0.3303 0.37811088 26241 ...Continue Reading
  • This mailing list is a public mailing list - anyone may join or leave, at any time.
  • This mailing list is announce-only.

International Space Station (ISS) / Hubble Space Telescope (HST) / Chandra X-Ray Observatory Orbital Data via EMAIL

Privacy Policy:

Private list